GW5672 Weather Reports


time (UTC)temp
C
wind
direction
speed
KPH
gust
KPH
rain 1hr
cm
rain 24hr
cm
rain mn
cm
humidity
%
barometer
mb
20260504045802 14 214 4.8 9.7 0.00 0.00 0.00 60 1004.2
20260504045256 14 236 0.0 8.0 0.00 0.00 0.00 61 1004.2
20260504044754 14 209 3.2 6.4 0.00 0.00 0.00 61 1004.1
20260504044251 14 105 0.0 6.4 0.00 0.00 0.00 61 1004.2
20260504043748 14 190 1.6 4.8 0.00 0.00 0.00 62 1004.2
20260504043245 14 228 3.2 8.0 0.00 0.00 0.00 62 1004.2
20260504042743 14 2 0.0 4.8 0.00 0.00 0.00 62 1004.0
20260504042239 14 212 1.6 3.2 0.00 0.00 0.00 62 1004.2
20260504041735 14 229 3.2 6.4 0.00 0.00 0.00 61 1004.3
20260504041231 14 213 3.2 3.2 0.00 0.00 0.00 61 1004.0
20260504040728 14 76 0.0 3.2 0.00 0.00 0.00 61 1004.0
20260504040225 14 208 0.0 3.2 0.00 0.00 0.00 60 1004.2
20260504035721 14 151 1.6 3.2 0.00 0.00 0.00 60 1004.3
20260504035219 15 128 1.6 3.2 0.00 0.00 0.00 60 1004.5
20260504034716 15 112 0.0 3.2 0.00 0.00 0.00 59 1004.4
20260504034213 15 223 3.2 4.8 0.00 0.00 0.00 59 1004.3
20260504033711 15 203 0.0 3.2 0.00 0.00 0.00 59 1004.4
20260504033208 15 212 0.0 6.4 0.00 0.00 0.00 58 1004.6
20260504032705 15 213 3.2 8.0 0.00 0.00 0.00 57 1004.6
20260504032202 15 211 0.0 6.4 0.00 0.00 0.00 57 1004.6
20260504031659 15 225 3.2 6.4 0.00 0.00 0.00 57 1004.5
20260504031155 15 197 4.8 4.8 0.00 0.00 0.00 57 1004.5
20260504030652 15 129 0.0 3.2 0.00 0.00 0.00 57 1004.7
20260504030148 15 182 0.0 4.8 0.00 0.00 0.00 56 1004.7
20260504025645 15 267 3.2 6.4 0.00 0.00 0.00 56 1004.8
20260504025142 15 212 0.0 3.2 0.00 0.00 0.00 56 1004.7
20260504024640 15 110 0.0 3.2 0.00 0.00 0.00 56 1004.7
20260504024136 15 218 3.2 6.4 0.00 0.00 0.00 56 1004.7
20260504023633 15 147 0.0 4.8 0.00 0.00 0.00 56 1004.7
20260504023129 15 198 0.0 3.2 0.00 0.00 0.00 55 1004.6
20260504022625 15 179 0.0 3.2 0.00 0.00 0.00 55 1004.7
20260504022121 16 229 0.0 0.0 0.00 0.00 0.00 55 1004.5
20260504021619 16 178 0.0 1.6 0.00 0.00 0.00 54 1004.6
20260504021115 16 212 0.0 4.8 0.00 0.00 0.00 54 1004.6
20260504020613 16 225 1.6 3.2 0.00 0.00 0.00 54 1004.7
20260504020109 16 129 0.0 1.6 0.00 0.00 0.00 54 1004.4
20260504015605 16 157 0.0 1.6 0.00 0.00 0.00 54 1004.4
20260504015101 16 230 0.0 1.6 0.00 0.00 0.00 54 1004.4
20260504014557 15 139 0.0 1.6 0.00 0.00 0.00 53 1004.4
20260504014055 16 89 0.0 1.6 0.00 0.00 0.00 52 1004.3
20260504013552 16 117 0.0 0.0 0.00 0.00 0.00 52 1004.3
20260504013049 16 195 0.0 1.6 0.00 0.00 0.00 51 1004.3
20260504012547 16 322 0.0 1.6 0.00 0.00 0.00 51 1004.2
20260504012044 16 230 0.0 0.0 0.00 0.00 0.00 50 1004.2
20260504011541 17 140 0.0 3.2 0.00 0.00 0.00 49 1004.0
20260504011037 17 48 0.0 0.0 0.00 0.00 0.00 49 1003.9
20260504010533 17 89 1.6 1.6 0.00 0.00 0.00 48 1003.9
20260504010029 17 209 3.2 3.2 0.00 0.00 0.00 47 1004.0
20260504005526 18 102 3.2 3.2 0.00 0.00 0.00 46 1003.8
20260504005023 18 239 3.2 3.2 0.00 0.00 0.00 45 1004.0
20260504004521 18 221 3.2 6.4 0.00 0.00 0.00 45 1004.0
20260504004018 18 224 0.0 4.8 0.00 0.00 0.00 44 1003.9
20260504003514 18 252 3.2 6.4 0.00 0.00 0.00 44 1004.1
20260504003011 18 269 0.0 6.4 0.00 0.00 0.00 43 1004.0
20260504002508 19 220 3.2 4.8 0.00 0.00 0.00 43 1004.0
20260504002005 19 232 8.0 8.0 0.00 0.00 0.00 42 1004.1
20260504001503 19 277 3.2 9.7 0.00 0.00 0.00 42 1004.0
20260504000959 19 245 0.0 6.4 0.00 0.00 0.00 41 1003.8
20260504000456 20 321 3.2 8.0 0.00 0.00 0.00 40 1004.1
20260503235953 20 240 3.2 9.7 0.00 0.00 0.00 40 1003.9
20260503235451 20 315 4.8 6.4 0.00 0.00 0.00 40 1004.1
20260503234948 20 285 4.8 9.7 0.00 0.00 0.00 39 1003.9
20260503234446 20 228 9.7 17.7 0.00 0.00 0.00 39 1003.9
20260503233944 20 244 6.4 17.7 0.00 0.00 0.00 39 1004.0
20260503233440 20 284 3.2 11.3 0.00 0.00 0.00 39 1004.0
20260503232936 20 244 12.9 14.5 0.00 0.00 0.00 38 1004.1
20260503232433 20 242 3.2 9.7 0.00 0.00 0.00 41 1004.2
20260503231931 20 211 11.3 17.7 0.00 0.00 0.00 39 1004.0
20260503231429 20 238 8.0 17.7 0.00 0.00 0.00 40 1004.0
20260503230925 20 258 3.2 17.7 0.00 0.00 0.00 40 1004.0
20260503230421 20 221 3.2 14.5 0.00 0.00 0.00 39 1004.1
20260503225919 20 245 9.7 17.7 0.00 0.00 0.00 39 1004.1
20260503225415 20 236 8.0 12.9 0.00 0.00 0.00 40 1004.2
20260503224911 20 219 6.4 9.7 0.00 0.00 0.00 40 1004.2
20260503224408 20 289 4.8 9.7 0.00 0.00 0.00 40 1004.5
20260503223906 20 288 9.7 14.5 0.00 0.00 0.00 39 1004.1
20260503223404 20 244 6.4 22.5 0.00 0.00 0.00 39 1004.3
20260503222859 20 219 8.0 11.3 0.00 0.00 0.00 39 1004.5
20260503222358 20 246 1.6 9.7 0.00 0.00 0.00 40 1004.4
20260503221856 20 259 3.2 14.5 0.00 0.00 0.00 40 1004.5
20260503221354 20 233 6.4 20.9 0.00 0.00 0.00 38 1004.6
20260503220850 20 241 6.4 12.9 0.00 0.00 0.00 38 1004.5
20260503220347 20 256 9.7 22.5 0.00 0.00 0.00 40 1004.7
20260503215844 20 214 17.7 19.3 0.00 0.00 0.00 39 1004.8
20260503215341 20 226 11.3 22.5 0.00 0.00 0.00 39 1004.7
20260503214838 20 260 4.8 12.9 0.00 0.00 0.00 38 1004.7
20260503214336 20 306 12.9 16.1 0.00 0.00 0.00 37 1004.7
20260503213833 20 244 9.7 9.7 0.00 0.00 0.00 38 1004.9
20260503213330 20 260 6.4 22.5 0.00 0.00 0.00 38 1005.1
20260503212827 20 219 9.7 20.9 0.00 0.00 0.00 37 1005.0
20260503212325 20 235 11.3 20.9 0.00 0.00 0.00 37 1005.0
20260503211822 20 273 4.8 25.7 0.00 0.00 0.00 38 1005.2
20260503211319 19 261 8.0 24.1 0.00 0.00 0.00 39 1005.3
20260503210819 19 249 14.5 16.1 0.00 0.00 0.00 38 1005.5
20260503210316 20 241 12.9 22.5 0.00 0.00 0.00 37 1005.5
20260503205811 20 220 4.8 19.3 0.00 0.00 0.00 38 1005.5
20260503205308 20 259 6.4 17.7 0.00 0.00 0.00 36 1005.6
20260503204805 20 217 9.7 17.7 0.00 0.00 0.00 38 1005.6
20260503204303 20 184 3.2 16.1 0.00 0.00 0.00 38 1005.9
20260503203759 19 242 6.4 20.9 0.00 0.00 0.00 37 1006.0
20260503203257 19 253 11.3 20.9 0.00 0.00 0.00 38 1005.9
20260503202754 18 153 4.8 25.7 0.00 0.00 0.00 39 1005.9
20260503202252 19 219 8.0 9.7 0.00 0.00 0.00 42 1006.2
20260503201749 19 92 3.2 14.5 0.00 0.00 0.00 41 1006.4
20260503201247 18 236 9.7 14.5 0.00 0.00 0.00 43 1006.5
20260503200743 19 240 12.9 19.3 0.00 0.00 0.00 43 1006.8
20260503200239 18 278 3.2 12.9 0.00 0.00 0.00 46 1006.9
20260503195736 18 250 11.3 25.7 0.00 0.00 0.00 44 1007.0
20260503195233 17 215 14.5 17.7 0.00 0.00 0.00 46 1007.2
20260503194731 17 228 9.7 20.9 0.00 0.00 0.00 44 1007.4
20260503194226 17 241 16.1 30.6 0.00 0.00 0.00 43 1007.2
20260503193723 17 132 4.8 30.6 0.00 0.00 0.00 43 1007.2
20260503193219 17 252 3.2 19.3 0.00 0.00 0.00 44 1007.1
20260503192715 17 215 9.7 19.3 0.00 0.00 0.00 44 1007.0
20260503192210 17 264 4.8 14.5 0.00 0.00 0.00 44 1007.0
20260503191707 17 203 9.7 17.7 0.00 0.00 0.00 45 1007.0
20260503191204 16 110 9.7 16.1 0.00 0.00 0.00 45 1007.5
20260503190701 16 243 6.4 22.5 0.00 0.00 0.00 44 1007.5
20260503190157 16 249 8.0 22.5 0.00 0.00 0.00 43 1007.5
20260503185654 16 240 6.4 19.3 0.00 0.00 0.00 46 1007.6
20260503185149 16 242 3.2 20.9 0.00 0.00 0.00 44 1007.7
20260503184645 16 223 6.4 19.3 0.00 0.00 0.00 45 1007.6
20260503184141 16 68 8.0 16.1 0.00 0.00 0.00 46 1007.7
20260503183638 16 236 4.8 11.3 0.00 0.00 0.00 47 1007.8
20260503183136 16 196 3.2 11.3 0.00 0.00 0.00 48 1007.9
20260503182633 16 166 6.4 16.1 0.00 0.00 0.00 47 1008.0
20260503182132 16 243 9.7 16.1 0.00 0.00 0.00 47 1008.1
20260503181628 15 254 6.4 16.1 0.00 0.00 0.00 49 1008.3
20260503181125 15 240 11.3 17.7 0.00 0.00 0.00 48 1008.2
20260503180622 15 119 6.4 20.9 0.00 0.00 0.00 49 1008.4
20260503180120 15 265 6.4 22.5 0.00 0.00 0.00 49 1008.6
20260503175616 15 259 9.7 17.7 0.00 0.00 0.00 50 1008.8
20260503175114 15 162 6.4 20.9 0.00 0.00 0.00 51 1009.0
20260503174610 15 253 9.7 17.7 0.00 0.00 0.00 51 1009.0
20260503174107 15 134 6.4 17.7 0.00 0.00 0.00 51 1009.4
20260503173602 15 293 8.0 37.0 0.00 0.00 0.00 52 1009.5
20260503173059 14 205 6.4 14.5 0.00 0.00 0.00 54 1009.6
20260503172556 13 78 6.4 12.9 0.00 0.00 0.00 56 1009.7
20260503172053 13 165 3.2 9.7 0.00 0.00 0.00 58 1009.9
20260503171549 13 231 4.8 14.5 0.00 0.00 0.00 59 1010.1
20260503171047 12 230 9.7 9.7 0.00 0.00 0.00 62 1010.3
20260503170543 12 278 4.8 14.5 0.00 0.00 0.00 61 1010.1
20260503150936 12 218 6.4 20.9 0.00 0.00 0.00 55 1011.6
20260503150432 12 256 4.8 17.7 0.00 0.00 0.00 54 1011.5
20260503131325 11 218 9.7 16.1 0.00 0.00 0.00 52 1012.5
20260503130823 11 236 4.8 17.7 0.00 0.00 0.00 52 1012.5
20260503130320 11 214 6.4 9.7 0.00 0.00 0.00 53 1012.6
20260503110714 8 297 4.8 9.7 0.00 0.00 0.00 55 1011.7
20260503110211 8 216 4.8 8.0 0.00 0.00 0.00 54 1012.0
20260503100137 8 207 3.2 4.8 0.00 0.00 0.00 55 1012.4
20260503081527 8 193 3.2 9.7 0.00 0.00 0.00 52 1013.0
20260503081024 8 78 0.0 12.9 0.00 0.00 0.00 52 1013.0
20260503080520 8 214 4.8 8.0 0.00 0.00 0.00 52 1012.9
20260503072454 7 228 3.2 6.4 0.00 0.00 0.00 52 1013.0
20260503071951 7 122 0.0 8.0 0.00 0.00 0.00 52 1012.9
20260503071448 7 268 1.6 6.4 0.00 0.00 0.00 52 1013.1
20260503070944 7 324 3.2 6.4 0.00 0.00 0.00 53 1013.1
20260503070441 7 190 0.0 3.2 0.00 0.00 0.00 53 1013.1
20260503054900 7 170 1.6 6.4 0.00 0.00 0.00 55 1013.7
20260503054356 7 126 0.0 3.2 0.00 0.00 0.00 55 1013.8
20260503053854 7 105 1.6 3.2 0.00 0.00 0.00 55 1013.9
20260503053352 7 194 1.6 1.6 0.00 0.00 0.00 55 1014.0
20260503052848 7 166 0.0 3.2 0.00 0.00 0.00 55 1014.1
20260503052345 7 103 3.2 3.2 0.00 0.00 0.00 55 1014.0
20260503051841 7 190 1.6 3.2 0.00 0.00 0.00 54 1014.0
20260503051337 7 166 1.6 6.4 0.00 0.00 0.00 54 1014.2
20260503050835 7 99 0.0 3.2 0.00 0.00 0.00 55 1014.1
20260503050331 7 204 0.0 3.2 0.00 0.00 0.00 55 1014.2